Content
SEND FEEDBACK

Daily
Averages
Monthly
Summary
United States of America

SALMON, IDAHO


Home > North America > United States > Idaho
Elevation: 4045 feet     Latitude: 45 07N     Longitude: 113 53W

WEATHER
 
SELECT A DAY
Number of Records: 458,588;   Date Range: 1/1/95 - 10/22/14
 
SHARE

PRINT THIS DATA

[ ← Previous Day ]
WEATHER ALMANAC - JANUARY 23, 2013
[ Next Day → ]
[ °C ]   °F
Weather ElementAverageHighLow
Temperature5.9 °F15.8 °F (6:15 pm)-2.2 °F (3:55 am)
Dewpoint2.3 °F10.4 °F (6:35 pm)-7.6 °F (4:35 am)
Humidity85.5 %100 % (12:35 am)72 % (6:15 am)
Barometer30.23 in30.32 in (3:55 am)30.11 in (10:35 pm)
Wind Speed0.6 mph4.6 mph (12:55 am)
Weather ElementAverage
Visibility9.7 mi
Wind DirectionNNE (26.8 °)

Weather ElementTotal
Precipitation---
Heating Degree Days58.2 (Base 65)
Averaged from 69 records on January 23, 2013
WEATHER CONDITIONS BREAKOUT
WIND DIRECTION BREAKOUT
WEATHER BY HOUR - JANUARY 23, 2013
[ °C ]   °F
Local TimeTemperatureDewpointHumidityBarometerVisibilityWind DirectionWind SpeedGust SpeedPrecipitationEventsConditions
12:35 AM1.4 °F1.4 °F100 %30.31 in8.0 miCalmClear
12:55 AM1.4 °F-2.2 °F85 %30.30 in10.0 miESE (110°)4.6 mphClear
1:15 AM1.4 °F-0.4 °F92 %30.30 in10.0 miCalmClear
1:35 AM1.4 °F-0.4 °F92 %30.30 in9.0 miCalmClear
1:55 AM1.4 °F1.4 °F100 %30.30 in10.0 miCalmClear
2:15 AM-0.4 °F-5.8 °F78 %30.30 in9.0 miCalmClear
2:35 AM1.4 °F-2.2 °F85 %30.30 in10.0 miCalmClear
2:55 AM-0.4 °F-4.0 °F85 %30.31 in10.0 miCalmClear
3:15 AM-0.4 °F-4.0 °F85 %30.31 in10.0 miCalmClear
3:35 AM-0.4 °F-5.8 °F78 %30.31 in10.0 miCalmClear
3:55 AM-2.2 °F-2.2 °F100 %30.32 in10.0 miCalmClear
4:15 AM-2.2 °F-5.8 °F85 %30.32 in10.0 miCalmClear
4:35 AM-2.2 °F-7.6 °F78 %30.32 in10.0 miCalmClear
4:55 AM-2.2 °F-2.2 °F100 %30.31 in10.0 miCalmClear
5:15 AM-2.2 °F-2.2 °F100 %30.31 in10.0 miCalmClear
5:35 AM-0.4 °F-0.4 °F100 %30.30 in10.0 miCalmClear
5:55 AM-0.4 °F-5.8 °F78 %30.30 in10.0 miCalmClear
6:15 AM-0.4 °F-7.6 °F72 %30.30 in10.0 miCalmClear
6:35 AM-0.4 °F-2.2 °F92 %30.30 in10.0 miCalmClear
6:55 AM1.4 °F-0.4 °F92 %30.30 in10.0 miCalmClear
7:15 AM-0.4 °F-2.2 °F92 %30.30 in10.0 miCalmClear
7:35 AM-0.4 °F-2.2 °F92 %30.30 in9.0 miCalmClear
7:55 AM-0.4 °F-5.8 °F78 %30.30 in10.0 miCalmClear
8:15 AM-0.4 °F-2.2 °F92 %30.29 in10.0 miCalmClear
8:35 AM-2.2 °F-7.6 °F78 %30.29 in10.0 miCalmClear
8:55 AM-0.4 °F-2.2 °F92 %30.29 in10.0 miCalmClear
9:15 AM-2.2 °F-5.8 °F85 %30.30 in10.0 miCalmClear
9:35 AM-0.4 °F-2.2 °F92 %30.29 in10.0 miCalmClear
9:55 AM1.4 °F1.4 °F100 %30.30 in8.0 miCalmClear
10:15 AM1.4 °F1.4 °F100 %30.30 in7.0 miCalmClear
10:35 AM1.4 °F-0.4 °F92 %30.29 in8.0 miCalmClear
10:55 AM3.2 °F1.4 °F92 %30.28 in9.0 miCalmClear
11:15 AM3.2 °F-0.4 °F85 %30.29 in5.0 miCalmClear
11:35 AM3.2 °F1.4 °F92 %30.28 in10.0 miCalmClear
11:55 AM5.0 °F1.4 °F85 %30.27 in9.0 miCalmClear
12:15 PM6.8 °F1.4 °F79 %30.26 in10.0 miCalmClear
12:35 PM6.8 °F3.2 °F85 %30.25 in10.0 miCalmClear
12:55 PM8.6 °F3.2 °F79 %30.23 in10.0 miCalmClear
1:35 PM8.6 °F5.0 °F85 %30.21 in10.0 miCalmPartly Cloudy
2:15 PM10.4 °F6.8 °F85 %30.19 in10.0 miNW (320°)3.5 mphClear
2:35 PM12.2 °F6.8 °F79 %30.18 in10.0 miSSW (200°)3.5 mphClear
2:55 PM12.2 °F6.8 °F79 %30.18 in10.0 miCalmClear
3:15 PM12.2 °F8.6 °F85 %30.17 in10.0 miCalmClear
3:35 PM12.2 °F6.8 °F79 %30.18 in10.0 miCalmClear
3:55 PM12.2 °F6.8 °F79 %30.17 in10.0 miNE (50°)3.5 mphClear
4:15 PM12.2 °F6.8 °F79 %30.17 in10.0 miCalmClear
4:35 PM14.0 °F6.8 °F73 %30.17 in10.0 miCalmClear
4:55 PM14.0 °F6.8 °F73 %30.16 in10.0 miCalmClear
5:15 PM14.0 °F6.8 °F73 %30.16 in10.0 miCalmClear
5:35 PM14.0 °F6.8 °F73 %30.16 in10.0 miCalmClear
5:55 PM14.0 °F8.6 °F79 %30.15 in10.0 miCalmClear
6:15 PM15.8 °F8.6 °F73 %30.16 in10.0 miCalmClear
6:35 PM14.0 °F10.4 °F86 %30.16 in10.0 miCalmClear
6:55 PM14.0 °F10.4 °F86 %30.15 in10.0 miCalmClear
7:15 PM14.0 °F10.4 °F86 %30.15 in10.0 miCalmClear
7:35 PM14.0 °F8.6 °F79 %30.14 in7.0 miWest (260°)3.5 mphClear
7:55 PM14.0 °F8.6 °F79 %30.13 in10.0 miCalmClear
8:15 PM12.2 °F10.4 °F92 %30.13 in10.0 miCalmClear
8:35 PM14.0 °F10.4 °F86 %30.13 in10.0 miCalmClear
8:55 PM10.4 °F6.8 °F85 %30.13 in10.0 miSE (130°)3.5 mphClear
9:15 PM10.4 °F5.0 °F79 %30.13 in10.0 miCalmClear
9:35 PM10.4 °F5.0 °F79 %30.14 in10.0 miCalmScattered Clouds
9:55 PM10.4 °F8.6 °F92 %30.14 in10.0 miCalmMostly Cloudy
10:15 PM8.6 °F3.2 °F79 %30.13 in10.0 miSSE (160°)4.6 mphClear
10:35 PM8.6 °F5.0 °F85 %30.11 in10.0 miSouth (180°)4.6 mphClear
10:55 PM10.4 °F6.8 °F85 %30.11 in10.0 miCalmClear
11:15 PM12.2 °F6.8 °F79 %30.11 in10.0 miESE (120°)3.5 mphMostly Cloudy
11:35 PM10.4 °F8.6 °F92 %30.11 in10.0 miNW (320°)4.6 mphOvercast
11:55 PM10.4 °F8.6 °F92 %30.11 in8.0 miCalmOvercast
Hourly data recorded from KSMN, located miles away from Salmon, Idaho







STORIES FROM OUR PARTNERS